Date,TemperatureHighF,TemperatureAvgF,TemperatureLowF,DewpointHighF,DewpointAvgF,DewpointLowF,HumidityHigh,HumidityAvg,HumidityLow,PressureMaxIn,PressureMinIn,WindSpeedMaxMPH,WindSpeedAvgMPH,GustSpeedMaxMPH,PrecipitationSumIn
2013-4-1,39,33,26,32,20,16,81,60,41,30.06,29.70,12,2,18,0.00
2013-4-2,42,32,21,22,17,10,89,59,29,30.20,30.05,15,1,15,0.00
2013-4-3,47,33,20,24,16,8,89,56,22,30.35,30.20,12,0,12,0.00
2013-4-4,57,40,23,30,22,19,86,55,24,30.25,29.86,7,0,7,0.00
2013-4-5,53,42,31,32,27,18,82,58,27,30.11,29.84,11,1,11,0.00
2013-4-6,64,49,31,44,32,26,83,53,34,30.08,29.59,15,1,15,0.00
2013-4-7,61,52,41,49,42,35,83,70,52,29.89,29.52,15,2,15,0.03
2013-4-8,68,50,41,59,44,35,95,79,60,29.89,29.56,21,2,21,0.06
2013-4-9,76,56,39,63,50,38,96,80,58,29.91,29.69,10,0,10,0.00
2013-4-10,55,46,42,51,45,41,97,94,86,29.84,29.71,10,1,10,0.09
2013-4-11,43,42,40,42,41,39,98,97,95,29.78,29.50,14,3,14,0.98
2013-4-12,44,40,38,40,38,34,99,91,80,29.74,29.48,12,1,12,0.14
2013-4-13,44,39,35,35,32,29,94,78,59,29.90,29.74,15,1,15,0.01
2013-4-14,60,47,36,48,39,31,92,75,58,29.95,29.71,14,2,14,0.00
2013-4-15,65,57,47,57,52,45,98,83,73,29.83,29.69,11,0,11,0.17
2013-4-16,54,47,43,46,41,33,98,80,52,30.14,29.82,11,1,11,0.38
2013-4-17,54,48,44,46,41,36,97,78,64,30.17,29.79,21,2,21,0.74
2013-4-18,71,59,47,66,57,46,98,94,79,29.83,29.38,15,1,15,0.54
2013-4-19,59,40,34,59,36,31,98,84,73,29.76,29.38,17,3,17,0.39
2013-4-20,42,36,29,32,26,20,95,68,42,30.37,29.76,10,2,17,0.04
2013-4-21,52,40,26,33,27,21,90,63,44,30.49,30.31,11,1,11,0.00
2013-4-22,65,51,33,38,34,30,89,56,29,30.31,30.01,10,0,10,0.00
2013-4-23,66,52,41,56,45,38,96,78,56,30.01,29.75,10,0,10,0.52
2013-4-24,45,39,36,40,34,25,97,82,47,30.07,29.74,15,1,15,0.12
2013-4-25,51,42,35,41,34,29,91,74,48,30.27,30.01,16,1,16,0.04
2013-4-26,64,48,30,42,36,29,96,68,42,30.33,30.20,11,0,11,0.00
2013-4-27,69,56,38,47,40,34,95,60,29,30.23,29.93,10,0,10,0.00
2013-4-28,59,55,50,55,52,47,96,90,65,29.93,29.73,4,0,4,0.12
2013-4-29,72,60,46,58,53,45,99,80,54,29.84,29.75,9,0,9,0.00
2013-4-30,80,68,56,63,58,52,87,72,54,29.88,29.76,10,1,10,0.00